Flag Weather past 2 weeks in Winder, Georgia, U.S.A.

Now
42 °F

Overcast.


Feels Like: 35 °F
Forecast: 28 / 48 °F
Wind: 12 mph from Northwest

Location: Winder-Barrow Airport

Current Time: Nov 27, 2014 at 7:42:48 PM

Latest Report: Nov 27, 2014 at 6:55 PM


Visibility: 10 mi

Pressure: 30.35 "Hg

Humidity: 64%

Dew point: 31 °F

Location of WinderLocation

Historic Weather in Winder — Graph

°F

Winder temperature yesterday

Maximum temperature yesterday: 59 °F (at 2:35 PM)
Minimum temperature yesterday: 43 °F (at 9:15 PM)
Average temperature yesterday: 50 °F

Past Weeks' High & Low Weather Summary

 TemperatureHumidityPressure
High77 °F (Nov 24, 2:55 PM)100% (Nov 23, 6:15 AM)30.53 "Hg (Nov 23, 6:15 AM)
Low23 °F (Nov 19, 7:35 AM)28% (Nov 26, 3:35 PM)29.74 "Hg (Nov 23, 7:15 PM)
Average48 °F64%30.18 "Hg
* Reported Nov 12 6:15 PM — Nov 27 6:15 PM, Winder, Weather by CustomWeather, © 2014

Note: Actual official high and low records may vary slightly from our data, if they occured in-between our weather recording intervals... More about our weather records

Advertising

Winder weather history for previous 24 hours

 ConditionsComfort  
Time TempWeatherWind HumidityBarometerVisibility
6:15 PM
Nov 27
42 °FPassing clouds.10 mph66%30.34 "Hg10 mi
5:55 PM42 °FPassing clouds.8 mph63%30.33 "Hg10 mi
5:35 PM43 °FPassing clouds.13 mph59%30.33 "Hg10 mi
5:15 PM44 °FPartly sunny.14 mph59%30.32 "Hg10 mi
4:55 PM45 °FOvercast.18 mph56%30.31 "Hg10 mi
4:35 PM46 °FOvercast.13 mph57%30.31 "Hg10 mi
4:15 PM47 °FOvercast.15 mph55%30.30 "Hg10 mi
3:55 PM46 °FOvercast.13 mph54%30.29 "Hg10 mi
3:35 PM47 °FOvercast.14 mph53%30.28 "Hg10 mi
3:15 PM47 °FOvercast.17 mph53%30.28 "Hg10 mi
2:55 PM47 °FScattered clouds.16 mph54%30.28 "Hg10 mi
2:35 PM47 °FSunny.17 mph52%30.26 "Hg10 mi
2:15 PM47 °FSunny.14 mph50%30.26 "Hg10 mi
1:55 PM48 °FScattered clouds.18 mph49%30.26 "Hg10 mi
1:35 PM51 °FPartly sunny.15 mph49%30.26 "Hg10 mi
1:15 PM49 °FPartly sunny.17 mph53%30.26 "Hg10 mi
12:55 PM48 °FMostly cloudy.16 mph53%30.26 "Hg10 mi
12:35 PM50 °FMostly cloudy.16 mph52%30.26 "Hg10 mi
12:15 PM49 °FMostly cloudy.13 mph53%30.26 "Hg10 mi
11:55 AM48 °FMostly cloudy.13 mph55%30.27 "Hg10 mi
11:35 AM49 °FBroken clouds.17 mph56%30.27 "Hg10 mi
11:15 AM48 °FCloudy.18 mph58%30.27 "Hg10 mi
10:55 AM48 °FPartly sunny.12 mph61%30.27 "Hg10 mi
10:35 AM47 °FScattered clouds.14 mph64%30.25 "Hg10 mi
10:15 AM46 °FBroken clouds.14 mph65%30.25 "Hg10 mi
9:55 AM45 °FMore clouds than sun.12 mph67%30.24 "Hg10 mi
9:35 AM45 °FMore clouds than sun.13 mph68%30.23 "Hg10 mi
9:15 AM44 °FMore clouds than sun.10 mph69%30.23 "Hg10 mi
8:55 AM44 °FOvercast.12 mph68%30.21 "Hg10 mi
8:35 AM44 °FMore clouds than sun.8 mph69%30.21 "Hg10 mi
8:15 AM44 °FMore clouds than sun.9 mph68%30.20 "Hg10 mi
7:55 AM43 °FOvercast.10 mph68%30.20 "Hg10 mi
7:35 AM43 °FPartly sunny.8 mph68%30.19 "Hg10 mi
7:15 AM42 °FPassing clouds.8 mph71%30.18 "Hg10 mi
6:55 AM42 °FPassing clouds.10 mph69%30.17 "Hg10 mi
6:35 AM43 °FPassing clouds.10 mph68%30.17 "Hg10 mi
6:15 AM42 °FPassing clouds.7 mph67%30.15 "Hg10 mi
5:55 AM43 °FClear.10 mph66%30.15 "Hg10 mi
5:15 AM44 °FClear.13 mph64%30.13 "Hg10 mi
4:55 AM44 °FPassing clouds.13 mph63%30.13 "Hg10 mi
4:35 AM45 °FPassing clouds.12 mph60%30.13 "Hg10 mi
4:15 AM45 °FPassing clouds.10 mph58%30.12 "Hg10 mi
3:55 AM45 °FClear.7 mph57%30.10 "Hg10 mi
3:15 AM46 °FClear.8 mph57%30.09 "Hg10 mi
2:55 AM47 °FClear.10 mph56%30.08 "Hg10 mi
2:15 AM46 °FClear.6 mph61%30.07 "Hg10 mi
1:55 AM46 °FClear.9 mph60%30.06 "Hg10 mi
1:35 AM45 °FClear.8 mph64%30.06 "Hg10 mi
1:15 AM45 °FClear.7 mph62%30.06 "Hg10 mi
12:55 AM45 °FPartly cloudy.5 mph61%30.05 "Hg10 mi
12:15 AM46 °FOvercast.6 mph59%30.06 "Hg10 mi
11:55 PM
Nov 26
46 °FOvercast.6 mph60%30.07 "Hg10 mi
11:35 PM45 °FOvercast.3 mph75%30.08 "Hg10 mi
11:15 PM47 °FDrizzle. Overcast.No wind53%30.09 "Hg10 mi
10:55 PM47 °FOvercast.3 mph53%30.09 "Hg10 mi
10:15 PM46 °FOvercast.5 mph56%30.10 "Hg10 mi
9:55 PM47 °FMostly cloudy.5 mph49%30.09 "Hg10 mi
9:15 PM43 °FPassing clouds.5 mph72%30.09 "Hg10 mi
8:55 PM46 °FPassing clouds.5 mph57%30.10 "Hg10 mi
8:15 PM44 °FClear.No wind64%30.09 "Hg10 mi
7:55 PM48 °FClear.No wind46%30.10 "Hg10 mi
7:35 PM48 °FPassing clouds.5 mph46%30.10 "Hg10 mi
7:15 PM49 °FPassing clouds.3 mph45%30.10 "Hg10 mi
Weather by CustomWeather, © 2014

See weather overviewHow to use our weather pages